Theta_e
312 309 308 307 306 304 304 305 305 303 300 299 298 297 296 297 297 297 297 297 297 297 296 296 295 295 295 295 294 294 294 294 294 294 294 294 293 294 294 295 301 308 312 314 315 315 316 316 316 315 315 315 315 315 315 315 315 315 315 314 314 314 314 314 314 314 313 314 314 314 315 315 316 316 316 317 317 317 318 318 318 318 319 319 320
310 307 306 304 303 302 302 303 303 301 299 298 297 296 296 297 297 297 297 297 297 296 296 295 295 295 294 294 294 294 294 294 294 293 293 293 293 293 294 295 300 305 309 313 314 314 315 315 315 315 315 315 314 314 315 314 314 313 313 313 313 313 313 313 313 312 312 312 312 313 314 314 314 315 315 316 316 316 317 317 316 316 317 317 318
309 306 304 303 302 301 301 301 301 300 298 297 297 296 296 296 297 297 297 296 296 296 295 294 294 294 294 294 294 294 294 293 293 293 293 293 293 294 294 296 299 303 308 311 311 312 313 313 314 314 314 314 314 314 313 313 312 312 312 312 312 312 312 312 312 311 311 311 312 312 313 313 313 314 314 314 314 315 315 316 316 316 315 315 316
308 305 302 302 301 300 300 299 299 298 297 297 296 296 296 296 297 297 297 296 296 295 294 294 294 293 293 293 293 293 293 293 293 293 293 293 293 294 295 297 299 302 306 308 309 310 311 312 312 313 314 313 313 312 312 312 311 311 311 311 312 311 311 311 310 311 311 311 311 311 312 312 313 312 312 312 313 314 314 315 315 314 314 314 314
308 304 302 301 300 300 299 298 298 297 297 296 296 296 296 296 297 296 296 296 295 294 294 293 293 293 293 293 293 293 293 293 293 293 293 293 294 294 295 296 299 301 303 304 305 307 308 309 310 311 312 311 311 311 311 311 310 311 311 311 311 311 310 310 310 310 310 310 310 310 311 311 311 312 311 311 312 313 313 313 313 312 312 312 312
308 305 303 301 300 299 298 297 297 297 296 296 295 295 296 296 296 296 295 295 294 294 293 293 292 292 292 292 292 292 293 293 293 292 293 293 294 295 295 296 297 298 299 300 301 303 304 306 306 308 308 309 309 310 310 310 310 310 310 310 310 310 309 309 309 309 309 309 309 309 310 310 310 311 311 311 311 312 312 312 313 312 312 312 312
307 306 303 301 299 298 297 297 296 296 296 295 295 295 295 296 295 295 294 294 293 293 292 292 292 292 292 292 292 292 292 292 292 292 293 293 294 295 295 295 295 295 296 296 296 297 299 302 303 304 305 305 306 308 309 309 309 309 309 309 309 308 308 308 308 308 308 308 308 308 309 309 309 310 310 310 310 311 311 311 312 312 312 312 312
307 306 304 301 299 298 297 297 296 296 295 295 295 295 295 295 295 295 294 293 293 292 292 292 291 291 292 292 292 292 292 292 292 292 293 293 294 295 295 295 294 293 294 294 294 294 295 296 298 299 300 301 302 305 307 308 308 308 308 308 307 307 307 307 307 307 307 307 307 307 308 308 308 308 309 309 309 310 310 310 311 311 311 311 311
307 306 305 302 299 298 297 297 296 296 295 295 295 295 295 295 295 295 294 293 292 291 292 292 291 291 291 291 292 291 292 292 292 292 293 293 294 294 295 294 294 293 293 292 292 292 292 292 293 294 295 296 297 300 304 306 306 306 307 306 306 306 306 306 306 306 306 306 306 306 306 307 307 307 307 308 308 308 309 309 309 310 310 310 311
307 306 306 303 299 297 297 297 296 295 295 294 294 295 295 295 295 294 293 293 292 292 292 292 291 291 291 291 291 291 291 292 291 292 292 292 293 293 293 293 293 293 292 292 291 290 290 290 290 290 291 292 293 295 299 303 305 306 306 305 305 305 305 305 305 305 305 305 305 305 305 305 306 306 306 306 307 307 307 307 308 308 308 309 309
307 306 306 303 299 297 297 296 296 295 294 294 294 294 294 294 295 294 293 292 293 293 292 291 290 291 291 291 291 291 291 291 291 292 292 291 291 291 292 292 291 291 291 291 290 289 289 289 289 289 289 290 291 291 296 301 304 305 305 305 304 304 304 304 304 304 304 304 304 304 304 304 304 304 305 305 305 305 306 306 306 307 307 307 308
307 306 305 303 299 297 296 296 295 294 294 294 294 294 295 294 294 294 292 291 292 293 292 290 291 291 291 291 291 290 291 291 291 291 291 290 290 290 290 290 290 290 290 290 289 289 288 288 288 288 288 288 289 289 293 298 302 303 304 304 304 304 303 303 303 303 302 302 302 302 303 303 303 303 304 304 304 304 305 305 305 305 306 306 306
308 306 304 302 299 296 296 296 295 294 293 294 294 295 295 294 294 293 292 291 291 291 290 291 292 293 293 292 291 291 290 291 291 290 290 290 290 290 290 290 289 289 289 289 288 288 288 288 288 288 288 288 288 288 291 295 299 302 302 303 303 303 303 302 302 301 300 300 301 301 301 301 302 302 302 303 303 303 304 304 304 305 305 306 306
308 306 304 301 298 296 296 296 295 294 293 293 294 294 294 294 293 292 291 291 291 290 290 292 294 295 295 294 293 291 291 290 291 290 290 290 290 290 290 289 289 288 288 288 288 288 288 288 288 287 287 287 287 288 289 293 297 299 300 300 301 301 300 300 300 300 299 299 299 300 300 300 301 301 301 301 302 302 303 303 303 304 304 305 305
307 305 302 299 297 296 295 295 295 294 293 293 293 293 294 293 293 292 291 292 292 290 289 293 296 297 296 296 296 295 293 291 291 290 290 290 290 290 289 288 288 288 287 287 287 287 287 287 287 287 287 287 287 287 288 290 292 294 295 295 296 297 298 298 298 298 298 298 298 299 299 299 299 300 300 300 300 301 301 302 302 303 303 304 304
305 304 301 298 296 295 295 295 295 294 293 293 293 293 293 293 293 292 291 293 293 291 289 292 296 298 297 297 297 297 297 295 293 291 290 289 290 290 289 287 287 287 287 287 287 287 287 287 287 287 287 287 287 287 287 287 288 288 288 288 289 292 294 296 297 297 297 297 297 298 298 298 298 299 299 299 300 300 300 301 301 302 302 303 303
304 303 301 298 296 295 295 295 295 294 293 293 293 293 293 293 292 292 291 292 293 292 290 291 294 297 298 298 297 297 299 298 295 293 290 289 290 290 289 288 287 287 288 287 287 287 287 287 287 286 287 287 287 287 286 286 286 286 285 285 285 286 289 292 294 295 296 296 296 297 297 297 298 298 298 298 299 299 299 300 300 300 301 301 302
302 302 300 298 296 295 295 295 295 294 293 292 292 292 292 293 292 292 292 292 293 293 292 290 292 294 296 298 298 299 300 297 296 295 292 290 291 289 289 288 287 288 288 287 287 287 287 286 287 287 287 287 287 286 286 286 286 286 285 285 285 285 285 287 290 292 294 294 295 296 296 297 297 297 297 297 298 298 299 299 299 300 300 300 301
300 300 299 298 296 296 295 295 295 295 294 292 292 292 292 293 293 293 292 292 294 294 293 291 291 293 294 296 297 297 298 297 298 298 295 292 291 290 289 288 287 288 288 288 287 287 287 286 286 286 286 286 286 286 286 286 285 285 285 284 284 285 285 285 286 288 291 292 293 294 295 295 295 295 296 296 297 297 298 299 299 299 299 300 300
299 298 298 297 296 296 295 295 295 295 294 293 292 292 292 292 292 292 292 292 293 294 294 292 291 292 293 293 294 293 295 297 298 299 299 297 293 291 290 289 288 288 288 288 287 287 286 286 286 286 286 286 286 286 286 285 285 285 284 284 284 284 285 285 285 286 288 290 291 292 293 294 294 294 295 295 296 297 297 298 298 298 298 299 299
298 297 297 296 296 296 296 295 295 295 294 293 292 292 292 292 292 292 291 291 292 293 295 294 292 293 293 292 293 293 293 294 295 297 299 300 297 294 292 290 288 288 289 288 287 287 286 286 286 286 286 286 286 286 286 285 285 285 284 284 284 284 284 284 285 285 286 288 289 290 291 292 292 292 293 294 295 296 297 297 297 297 297 298 298
297 297 296 296 296 295 295 295 295 295 295 294 293 292 292 292 292 292 292 292 291 292 295 295 293 294 294 293 293 293 293 294 294 296 297 298 299 297 295 293 291 290 289 288 288 286 286 286 286 286 286 286 286 285 285 285 285 285 285 284 284 284 284 284 284 284 285 287 287 288 289 290 290 290 292 293 294 295 296 296 296 296 297 297 298
296 296 296 295 295 295 295 295 295 295 295 295 294 293 292 291 291 292 292 291 291 291 293 294 294 294 294 294 293 294 294 295 295 295 296 296 297 298 297 295 294 293 290 288 287 286 285 285 285 286 286 286 286 285 285 285 286 285 285 284 284 284 284 284 284 284 284 285 286 287 288 288 288 289 290 291 293 294 294 295 295 295 296 296 296
296 295 295 295 295 294 295 294 294 294 294 295 294 294 293 291 291 291 291 291 291 291 291 292 293 294 294 294 294 294 295 296 296 295 296 297 297 297 297 294 294 293 289 288 287 286 285 285 285 286 286 286 285 285 285 285 286 285 285 284 284 284 284 284 284 284 284 285 286 286 286 287 287 288 289 290 291 292 293 293 294 294 295 295 295
296 295 295 295 294 294 294 294 294 294 294 294 294 294 293 292 291 291 291 290 290 290 291 291 292 293 293 293 294 294 295 296 296 295 295 297 297 297 297 293 293 293 289 288 288 286 285 285 285 286 286 286 285 285 286 286 286 285 284 284 283 284 284 284 284 284 284 285 286 285 286 286 286 287 288 289 290 291 291 292 293 293 293 293 293
296 296 295 295 294 294 294 294 294 294 294 294 294 294 293 293 292 291 291 291 291 291 291 291 291 292 292 293 293 294 294 295 295 295 295 295 296 297 295 292 293 293 290 288 288 287 286 285 285 286 286 285 285 285 285 286 286 285 284 283 283 283 283 283 283 283 284 285 285 285 285 285 286 286 287 288 289 289 290 291 292 292 292 292 292
297 296 296 295 295 294 294 294 294 293 293 293 293 293 293 293 292 292 292 291 291 291 291 291 291 291 292 292 293 293 293 294 294 294 294 295 295 295 295 293 292 291 290 289 288 288 288 286 285 285 285 285 285 285 285 285 285 284 283 283 283 283 283 283 283 283 284 285 285 284 285 285 285 286 286 287 287 288 289 289 290 290 290 290 290
297 296 296 296 295 294 294 293 293 293 293 293 293 293 292 292 292 291 291 291 291 290 290 290 290 291 291 291 292 292 293 293 294 294 294 294 294 294 294 294 294 292 291 290 289 289 288 287 285 285 285 285 285 284 285 285 284 284 283 283 282 282 283 283 283 283 284 284 284 284 285 285 285 285 286 286 286 287 287 288 288 288 288 289 289
296 296 296 296 295 294 294 293 293 293 293 293 293 293 292 292 291 291 291 291 290 290 290 290 290 290 290 291 291 291 292 292 293 293 293 293 293 293 293 294 295 295 293 291 291 290 289 287 286 285 284 284 284 284 284 284 284 284 283 282 282 282 283 283 283 283 284 284 284 284 284 284 285 285 285 286 286 286 287 287 287 287 287 288 288
295 295 295 295 295 294 294 293 293 293 293 293 293 292 292 292 291 291 291 290 290 290 289 289 289 289 289 290 290 290 291 292 292 292 293 293 293 292 293 293 294 295 295 293 292 292 290 287 287 286 285 284 284 284 284 284 284 283 283 282 282 282 283 283 283 283 284 284 283 284 284 284 284 285 285 285 285 285 286 286 287 287 287 287 288
294 294 294 294 294 294 294 293 293 293 293 292 292 292 292 291 291 291 290 290 290 289 289 289 289 289 289 289 289 290 290 291 291 292 292 292 292 291 291 291 292 292 294 294 294 292 289 288 287 286 285 284 284 284 284 283 283 283 282 282 281 282 282 282 282 283 283 283 283 283 284 283 284 284 284 284 283 284 285 286 286 286 286 286 287
294 294 294 294 294 294 294 293 293 293 292 292 292 291 291 291 291 291 291 290 290 289 289 289 289 288 288 289 289 289 289 290 290 291 291 291 291 291 290 290 290 290 291 292 293 291 288 287 287 285 285 284 284 284 283 283 283 283 282 282 281 281 282 282 282 283 283 283 283 283 283 283 283 283 283 282 282 282 283 284 285 285 286 286 287
293 293 293 293 293 293 293 293 293 293 292 292 292 291 291 291 290 290 290 290 290 289 289 289 288 288 288 288 288 289 289 289 290 290 290 290 290 289 289 289 289 288 289 290 291 291 287 286 286 285 284 284 283 283 283 282 282 282 282 281 281 281 281 281 282 282 282 282 282 283 283 283 282 282 282 282 282 282 282 283 284 285 285 286 286
292 292 292 293 293 293 293 293 293 293 292 292 292 291 291 290 290 290 290 290 290 289 289 289 288 288 288 288 288 288 288 289 289 289 290 290 289 289 288 288 288 288 288 288 290 290 288 285 285 284 283 283 283 283 282 282 282 282 281 281 281 281 281 282 282 282 281 282 282 282 282 282 281 281 281 281 281 281 281 282 283 284 284 285 285
291 291 292 292 292 292 292 292 292 292 292 292 291 291 291 290 290 290 290 290 289 289 289 289 288 288 288 287 287 288 288 288 288 289 289 289 289 288 288 288 288 287 288 287 288 290 288 285 284 284 283 282 282 282 282 282 282 281 281 280 281 281 281 282 282 281 281 281 281 281 281 281 281 281 281 281 281 281 281 281 282 282 283 283 283
291 291 291 291 291 291 291 292 292 292 292 292 291 291 291 291 290 290 290 290 289 289 289 289 288 288 288 287 287 287 287 287 287 288 288 288 288 288 288 287 287 287 287 287 287 288 288 286 284 283 282 282 282 281 281 281 280 280 279 280 280 281 281 281 281 280 280 281 281 281 281 281 280 280 280 280 280 280 280 280 281 281 281 281 281
290 290 290 290 290 290 291 291 291 291 291 291 291 291 291 291 291 290 290 289 289 289 289 288 288 288 288 287 287 287 287 287 287 287 287 288 288 288 287 287 287 286 286 286 286 287 287 286 284 282 282 281 281 280 280 280 279 279 279 279 280 281 281 280 280 280 280 280 280 280 280 280 280 280 280 279 279 279 280 280 280 280 280 280 280
289 289 289 290 290 290 290 290 290 291 291 291 291 291 291 291 290 290 289 289 289 289 288 288 288 288 288 288 288 287 287 287 287 287 287 287 287 287 287 286 286 286 286 285 285 285 286 286 284 282 281 280 280 280 279 279 279 280 280 280 280 280 280 280 280 279 279 279 280 280 280 280 280 279 280 279 279 280 280 280 280 280 280 280 280
289 289 289 289 289 289 289 289 290 290 290 290 290 290 290 290 290 289 289 289 288 288 288 288 288 288 288 288 287 287 287 287 287 287 287 287 287 287 286 286 286 286 285 285 284 284 284 284 283 282 281 280 280 280 279 278 279 280 281 281 281 281 280 280 280 280 279 279 280 280 280 280 280 280 280 280 280 280 281 281 281 281 280 280 280
289 289 289 289 289 289 289 289 289 289 289 290 290 289 289 289 289 289 289 288 288 288 288 287 287 287 287 287 287 287 287 287 287 287 287 287 287 286 286 286 286 285 285 284 284 283 283 283 283 282 281 280 280 280 280 279 279 280 280 281 283 283 281 281 281 280 280 279 280 280 280 280 280 279 279 280 280 280 281 281 281 281 280 280 280
287 288 288 288 288 288 288 288 288 288 289 289 289 289 289 289 288 288 288 288 288 287 287 287 287 287 286 286 286 286 286 286 287 287 287 287 287 286 286 285 285 285 284 284 283 282 282 282 282 282 281 281 280 280 280 280 280 281 281 280 282 282 281 281 280 280 279 279 279 280 280 279 279 279 279 279 280 280 281 281 281 281 280 280 279
286 286 287 288 288 288 288 288 288 288 288 288 288 288 288 288 288 288 288 288 287 287 287 287 287 286 286 286 286 286 286 286 286 286 286 286 286 287 287 287 286 285 284 283 283 282 282 282 282 282 281 281 281 280 280 281 281 282 281 281 281 281 280 281 281 280 279 279 279 280 280 279 279 279 279 279 280 280 281 281 281 280 279 279 279
284 285 285 286 287 288 288 288 288 288 288 288 288 288 288 288 288 288 288 288 287 287 287 286 286 286 286 286 285 286 286 285 285 285 285 285 285 286 286 287 287 287 285 284 282 282 282 282 282 281 281 282 281 281 281 281 281 281 281 280 281 281 281 282 282 282 280 280 279 280 280 279 278 279 280 280 279 279 280 280 280 279 279 279 279
283 284 284 285 286 287 287 288 288 288 288 288 288 288 288 288 288 288 288 287 287 287 287 286 286 286 286 286 285 285 285 285 285 284 284 284 284 284 285 285 285 286 286 286 285 283 282 282 281 281 281 282 281 281 281 281 281 281 280 280 280 281 281 281 282 282 280 279 279 278 279 279 278 278 279 279 278 278 279 280 279 279 279 278 278
282 283 283 284 284 285 286 287 287 287 287 287 288 288 287 287 287 288 288 288 287 287 287 287 286 286 286 285 285 285 284 284 284 284 283 283 283 284 284 283 283 283 284 285 285 285 284 283 282 281 281 281 281 280 280 281 281 280 280 280 280 280 280 280 281 281 279 278 278 277 277 278 277 276 277 278 277 277 278 278 278 278 278 277 277
282 283 283 283 283 284 285 286 286 287 287 287 287 287 287 287 287 287 288 288 287 287 287 287 286 286 286 285 285 284 284 284 283 283 283 283 283 283 283 282 282 282 282 282 282 283 283 283 283 282 282 281 281 280 280 280 281 280 280 280 280 280 279 279 280 280 279 277 277 276 276 277 277 276 277 277 277 276 277 277 278 277 277 276 276
283 283 284 283 283 283 283 284 285 286 286 287 287 286 287 287 287 287 288 288 287 287 287 287 286 286 286 285 285 284 284 283 283 283 283 282 283 282 282 282 281 281 281 281 281 281 281 282 282 282 282 281 281 280 280 280 280 280 280 279 279 279 279 278 278 278 277 276 276 275 276 276 276 276 276 276 276 276 276 277 277 277 276 276 276
282 283 284 283 283 283 283 283 284 285 286 287 287 286 286 286 287 287 288 288 287 287 287 287 286 286 286 285 285 284 284 283 283 282 282 282 282 282 282 282 281 281 281 281 281 281 281 281 281 281 281 280 280 280 280 280 279 279 279 278 278 278 278 277 277 276 276 275 275 274 275 276 276 276 276 276 276 276 275 276 276 277 276 275 275
281 282 282 282 282 282 282 283 283 284 285 286 286 286 286 286 287 287 287 287 288 287 287 287 286 286 285 285 285 284 283 283 282 282 282 282 282 282 282 281 280 280 280 280 280 280 280 280 280 280 280 279 279 279 279 279 279 278 278 277 277 277 277 276 276 276 276 275 274 274 274 274 275 275 275 275 275 275 275 275 275 276 275 275 275
280 281 282 282 281 281 282 282 283 283 284 285 286 285 285 285 286 286 287 287 287 288 287 287 287 286 285 285 284 283 283 283 282 282 282 282 282 282 281 281 280 279 279 279 279 279 279 278 278 279 279 279 279 279 279 279 278 278 278 277 277 276 276 276 276 275 275 275 274 273 273 274 275 275 275 275 275 274 275 275 275 275 275 275 275
278 279 281 281 281 281 281 282 282 282 283 284 285 285 285 285 285 286 286 287 287 288 288 287 287 286 285 284 284 283 282 282 282 282 282 282 282 281 281 280 280 279 279 279 279 279 279 278 278 278 278 279 279 279 278 279 278 278 277 277 277 276 275 275 275 274 274 275 274 273 274 274 275 275 274 274 274 274 275 275 275 275 274 274 274
Wind_Speed
33 33 33 32 32 32 32 30 28 26 24 22 20 19 18 17 16 15 15 14 13 12 11 11 10 9 8 7 6 5 4 4 4 3 3 3 4 4 5 6 8 7 6 5 5 5 5 6 6 6 6 6 6 7 8 7 7 7 7 7 8 7 7 8 8 9 9 9 9 9 9 10 10 10 10 10 9 8 7 6 5 4 4 4 4
35 35 35 34 34 33 32 32 29 27 24 23 22 21 20 19 18 17 16 15 15 14 12 12 11 10 9 7 6 5 4 4 3 3 3 3 3 3 4 7 8 8 6 6 6 6 6 6 6 6 6 6 7 7 7 7 6 6 6 7 7 7 7 7 8 9 9 9 8 9 9 9 9 10 10 10 10 10 9 8 6 5 4 4 4
37 37 36 36 36 35 34 33 30 28 26 25 24 22 21 20 19 18 18 17 16 14 13 12 11 10 9 8 7 5 4 4 4 3 3 3 3 4 5 6 8 9 8 7 7 8 7 7 7 6 6 6 7 7 6 6 5 5 6 6 7 7 6 6 7 8 8 8 8 8 8 8 9 9 10 10 10 10 10 10 8 7 5 5 4
39 38 37 37 37 36 36 34 32 30 28 27 25 24 23 21 20 20 19 18 16 15 14 13 12 11 10 9 7 6 5 4 4 4 4 4 4 5 6 7 8 9 9 9 8 8 8 8 8 7 7 7 7 6 5 6 5 5 6 6 6 6 5 6 7 7 7 7 7 8 8 8 9 9 9 9 9 9 9 9 8 6 5 5 5
40 39 38 38 38 38 37 35 33 31 29 28 26 25 24 22 21 20 19 18 17 16 15 14 13 12 11 9 8 6 5 5 5 4 4 5 6 6 7 8 9 10 10 9 9 9 8 7 8 8 8 7 6 6 5 6 6 5 6 6 6 5 5 6 6 6 7 6 6 7 8 8 8 9 8 8 8 8 8 8 7 6 5 5 4
42 40 39 39 39 38 38 36 35 33 30 29 27 26 25 24 23 22 21 19 18 18 17 16 14 13 11 9 8 7 6 5 5 5 6 6 7 8 9 9 10 11 10 9 10 10 9 8 7 8 8 8 7 6 5 6 5 5 5 5 5 5 5 6 6 5 6 6 5 6 7 7 7 7 8 8 8 8 8 9 9 8 8 7 6
43 41 40 40 40 39 38 37 36 33 31 30 29 28 27 26 25 24 22 21 20 19 17 16 15 13 11 10 8 7 6 6 6 7 7 8 8 9 10 10 11 12 11 10 10 10 11 10 9 9 8 7 6 6 5 5 5 5 5 5 5 5 5 5 5 5 5 5 5 6 6 7 7 7 8 8 8 8 8 9 9 10 10 9 9
44 42 42 41 41 40 39 38 37 34 33 33 32 31 29 28 26 25 25 23 21 20 18 16 15 14 12 10 9 8 8 8 8 8 9 9 10 11 11 12 12 12 11 11 10 10 11 11 11 10 9 8 7 5 4 4 4 4 4 5 5 5 5 5 5 5 5 5 6 6 6 7 7 7 7 7 8 8 9 9 10 11 11 11 10
45 44 43 42 42 41 40 39 37 36 35 35 33 32 31 30 28 27 26 24 23 22 19 16 16 14 12 11 10 9 10 10 10 10 10 11 12 12 12 12 12 12 11 11 10 10 10 10 11 11 10 9 9 7 5 5 4 4 4 5 5 5 5 6 5 5 5 6 6 6 7 7 7 7 7 7 8 8 9 9 10 11 11 11 11
47 45 44 43 43 42 41 40 38 37 37 36 35 34 32 31 30 28 27 25 23 22 19 17 17 14 12 11 11 11 11 11 11 10 11 13 14 14 13 13 13 12 12 11 10 10 10 10 10 10 11 10 10 9 7 6 5 4 5 5 5 6 6 6 6 6 6 6 6 6 6 6 6 7 7 7 8 8 8 9 10 10 10 11 11
48 46 45 44 44 43 42 41 39 39 38 37 36 35 34 32 31 30 28 25 21 20 20 19 17 14 12 11 11 12 12 12 12 11 12 14 15 14 14 13 13 13 12 11 10 10 9 9 9 9 10 10 9 10 9 7 7 5 5 5 5 5 6 6 5 5 5 5 6 6 6 6 7 7 8 8 8 8 9 9 9 10 10 10 10
49 48 47 46 45 44 43 42 40 40 39 38 37 37 36 34 32 31 30 27 22 20 21 20 16 12 10 9 10 11 12 13 13 13 13 14 14 13 13 13 13 12 12 11 10 9 8 8 9 9 8 8 7 9 10 9 10 7 6 6 5 5 5 4 4 5 5 5 6 6 6 7 7 7 8 8 9 9 9 9 9 9 10 10 10
50 49 48 47 46 44 44 42 41 41 41 40 39 39 37 36 33 31 30 28 24 23 23 21 16 10 7 6 6 8 11 12 12 13 14 14 14 13 13 13 12 12 11 10 10 9 8 8 8 8 7 6 6 8 10 11 12 11 8 7 5 4 4 4 5 6 6 6 6 6 6 7 7 7 8 8 9 9 9 9 9 9 9 9 9
50 49 49 48 46 45 44 44 43 42 41 41 40 39 38 37 35 31 29 25 23 25 27 21 14 10 9 7 5 5 7 8 8 11 14 14 14 13 13 13 13 12 10 9 8 8 9 9 9 8 7 7 7 9 10 12 14 12 9 9 6 4 4 4 5 6 7 7 6 6 6 7 7 8 8 9 9 9 9 9 9 9 10 9 9
48 49 48 48 47 46 45 45 44 43 43 42 40 40 39 38 37 34 29 21 18 26 31 23 14 11 10 6 5 5 4 6 8 10 12 14 13 13 13 14 13 11 9 7 7 7 8 8 8 8 7 8 9 10 11 11 12 10 8 8 8 6 5 5 5 6 6 7 6 7 7 7 8 8 9 9 9 9 9 9 9 9 9 9 9
47 48 48 48 47 47 46 46 45 45 45 44 42 42 41 41 40 36 32 23 17 25 35 30 19 13 9 3 3 4 3 7 10 10 11 13 13 12 14 14 13 11 8 7 6 6 7 7 8 8 8 9 10 11 12 11 10 8 7 7 6 6 7 6 6 6 6 7 6 7 7 8 8 8 9 9 9 9 9 9 9 9 9 9 10
45 46 47 48 47 47 47 46 46 46 46 46 45 44 44 43 42 39 38 31 23 24 33 36 27 20 12 3 3 4 3 7 10 9 11 13 12 12 14 15 13 11 8 7 7 6 7 7 8 9 9 10 12 13 13 12 10 8 6 5 5 4 5 6 6 7 6 6 7 7 7 8 8 8 9 9 9 9 9 8 8 9 9 9 9
44 46 47 47 48 48 47 47 47 47 47 46 46 46 45 45 44 42 42 37 28 23 29 37 34 28 21 11 7 4 2 9 7 5 9 11 11 13 15 16 15 13 10 9 8 8 9 9 9 10 10 11 13 14 15 13 11 8 5 4 4 3 3 4 5 6 6 6 7 7 7 7 8 9 9 9 9 9 9 9 8 9 9 9 10
43 44 45 47 48 48 48 48 47 47 48 47 46 47 47 46 46 45 45 40 32 24 27 36 34 30 29 21 14 8 7 11 7 3 6 7 11 14 15 18 18 16 14 12 10 10 10 10 11 11 12 13 14 15 15 13 10 6 4 2 3 4 3 3 2 4 6 7 7 7 7 7 8 9 9 9 9 9 9 8 9 9 9 10 10
40 41 43 45 47 48 48 48 48 48 48 48 48 48 47 48 47 47 46 42 38 30 26 34 34 28 31 27 19 14 11 12 10 6 5 4 8 11 13 17 19 18 17 16 13 11 11 12 12 12 12 14 15 15 16 13 8 5 2 1 2 3 4 4 2 3 5 6 7 7 7 8 8 9 9 9 9 9 9 9 9 9 9 9 10
38 40 42 43 45 47 48 48 49 48 48 48 48 48 48 49 49 48 47 45 44 37 25 32 37 29 31 31 20 14 13 13 13 9 6 4 5 8 10 12 14 16 18 19 16 14 13 13 14 14 13 14 15 15 15 13 9 5 1 1 2 4 4 4 3 2 3 5 7 8 8 8 9 9 9 9 9 9 8 8 9 9 9 10 10
37 39 42 44 45 46 46 47 48 48 48 48 48 48 48 49 49 49 50 48 48 45 31 30 37 32 32 34 24 15 11 10 11 10 7 5 4 5 10 11 10 13 17 20 19 16 15 15 15 15 15 15 15 15 15 15 11 6 2 2 2 4 5 5 4 3 3 4 6 7 8 9 9 9 9 9 9 9 8 8 9 9 9 10 10
32 36 40 43 44 45 45 45 46 47 49 49 49 49 48 48 48 48 50 50 49 49 42 34 34 32 32 34 30 26 20 14 14 15 10 7 5 4 8 11 8 9 14 20 20 17 16 16 16 17 17 16 15 14 15 17 13 7 5 4 3 3 5 5 4 4 5 4 4 6 7 8 9 9 9 9 9 9 9 9 9 10 10 10 11
26 32 37 41 42 43 44 44 46 47 49 49 49 50 49 48 48 47 48 50 48 48 46 40 36 33 34 33 31 32 29 22 21 23 18 12 10 6 6 9 6 6 12 17 18 17 17 17 18 19 19 17 16 15 16 18 14 9 8 6 4 4 4 5 5 5 5 4 4 5 6 7 8 9 9 10 10 10 10 9 9 10 10 11 11
26 32 36 40 41 42 44 45 47 48 49 49 49 50 50 48 48 48 48 49 50 48 47 46 42 38 38 37 34 31 30 26 24 27 23 15 11 8 6 7 5 6 9 12 13 14 16 17 19 21 21 19 17 17 18 19 16 13 11 8 5 4 4 5 5 5 5 4 3 4 5 6 7 8 9 9 10 10 10 9 9 10 10 11 11
29 33 35 37 40 42 44 45 45 46 47 49 49 49 50 49 49 51 51 51 51 51 51 50 48 44 41 40 39 36 35 33 29 28 26 20 14 10 6 4 2 5 7 8 9 10 13 17 22 23 22 22 20 19 20 20 18 16 12 9 7 5 5 5 5 5 6 3 2 3 4 5 6 7 8 8 9 9 10 10 10 10 11 11 12
28 32 33 35 38 40 42 43 44 45 45 46 48 48 49 49 49 51 52 52 52 52 53 52 51 49 46 43 41 40 39 38 35 31 30 28 24 18 13 7 3 3 4 6 8 10 10 14 22 25 23 23 22 20 21 21 19 16 13 10 9 7 6 5 5 6 6 4 3 4 4 4 5 6 7 8 9 9 9 10 10 11 11 12 12
27 30 32 34 36 38 40 43 44 45 45 45 46 46 46 47 48 49 50 51 51 52 52 53 53 51 49 46 43 42 42 41 39 36 34 32 30 27 22 14 7 5 5 5 7 9 11 13 17 24 25 24 23 22 22 21 20 16 13 12 10 8 7 6 6 7 7 5 5 5 4 4 4 5 6 7 8 9 9 10 11 11 11 12 12
28 30 31 32 33 35 38 40 42 44 45 46 46 46 45 46 46 47 48 49 50 50 51 52 53 51 50 49 46 44 43 42 41 39 36 34 32 30 27 22 14 8 5 6 7 8 13 17 16 20 27 26 24 24 23 21 20 17 15 14 11 10 9 7 6 8 8 7 7 7 4 4 4 4 5 6 7 7 8 10 10 11 11 12 12
29 30 30 31 32 33 35 38 40 42 44 45 46 46 45 45 45 45 46 47 46 48 49 50 51 50 49 49 48 46 44 43 42 40 38 36 34 32 30 27 21 13 7 6 8 9 14 19 18 19 27 29 27 26 24 22 21 19 17 15 13 12 10 8 8 9 9 9 9 8 5 4 3 3 4 6 6 7 8 9 10 11 12 12 12
29 30 30 31 31 32 34 36 38 40 42 43 44 45 45 45 45 46 46 45 45 46 47 48 48 48 48 48 48 47 45 43 42 41 39 37 36 34 32 31 28 23 15 8 6 9 14 18 20 21 25 29 30 28 25 25 23 20 19 17 15 14 12 9 9 10 10 9 9 7 5 4 2 2 4 5 5 6 7 9 10 11 11 12 12
29 30 30 30 31 32 34 35 36 38 40 41 42 43 44 45 46 47 48 47 47 46 46 46 47 47 47 47 49 48 46 43 42 42 41 39 38 36 34 34 32 29 23 13 6 7 13 16 18 21 25 26 29 29 26 25 24 20 19 19 16 15 13 11 11 10 9 9 8 6 5 4 3 4 4 4 4 4 5 7 10 11 11 12 12
28 29 30 31 32 33 33 34 36 37 38 39 41 42 42 43 44 46 47 47 48 48 46 46 48 48 47 47 49 49 48 45 44 43 42 41 39 37 36 34 33 32 28 19 9 6 11 15 17 20 24 25 26 28 27 25 24 22 20 20 18 17 15 14 12 10 9 8 7 6 5 5 5 5 4 4 3 4 4 7 9 11 12 12 12
26 28 29 30 32 33 33 35 35 36 37 38 40 41 43 44 45 45 46 46 48 48 48 48 48 48 48 48 48 49 48 46 45 45 44 43 41 39 38 36 34 34 32 24 14 7 10 15 18 18 23 25 24 25 27 25 23 23 22 21 19 18 17 16 13 11 9 8 7 7 6 6 6 5 4 3 3 3 4 6 9 11 12 12 12
22 25 27 29 30 32 33 35 35 36 38 38 40 42 44 46 46 47 48 48 49 49 50 51 50 49 49 49 49 49 48 46 46 45 45 44 44 42 41 39 37 35 36 31 20 11 10 14 17 19 22 26 24 22 25 25 23 23 23 21 20 20 19 17 14 11 9 8 8 7 7 7 7 5 3 2 3 4 5 7 9 10 10 11 11
20 22 25 27 28 30 32 34 36 37 39 40 41 43 45 47 47 48 48 49 50 51 52 52 51 50 51 51 51 51 49 48 47 47 45 45 45 45 43 41 39 36 36 35 26 15 12 14 16 18 20 24 24 21 23 25 23 23 22 21 21 21 20 17 14 11 9 9 9 8 8 8 7 4 2 3 4 6 7 7 8 8 9 10 11
19 20 22 25 27 28 30 33 35 37 40 41 42 44 46 47 48 49 49 49 50 51 52 53 52 52 53 54 54 53 51 51 51 50 49 48 47 47 45 43 41 37 35 36 32 21 14 14 16 17 17 19 20 21 23 23 20 20 21 21 21 21 19 16 14 12 10 8 8 9 9 8 5 3 3 5 6 7 7 7 7 7 8 9 11
19 19 20 22 25 27 29 32 34 37 39 41 43 45 46 47 48 49 49 48 49 50 52 53 53 53 54 56 57 55 54 55 56 54 53 51 49 49 47 44 42 39 35 34 34 28 19 15 18 19 17 17 17 17 23 24 19 16 16 17 18 19 17 15 13 12 10 8 8 9 8 7 4 5 6 7 7 6 6 6 6 7 8 10 11
24 21 20 20 23 26 28 31 34 36 38 40 42 44 45 45 47 48 49 48 47 47 50 52 53 53 54 56 57 57 57 59 60 58 55 54 52 50 49 47 43 40 38 35 34 32 24 16 16 19 18 18 17 15 19 23 19 15 14 13 14 16 16 14 12 11 10 8 7 8 8 6 5 7 8 8 7 6 6 6 7 8 9 10 11
27 25 23 21 22 23 25 29 32 35 38 40 41 41 42 43 44 47 48 47 46 47 48 50 51 52 54 56 57 58 60 61 62 61 59 57 55 52 49 47 45 42 39 36 34 33 28 18 16 17 16 17 17 14 15 19 18 16 18 17 13 13 14 13 12 11 9 8 7 7 7 6 7 10 11 10 8 7 7 7 7 9 11 12 12
28 27 26 25 23 22 23 25 28 31 35 38 39 39 39 41 42 43 43 43 46 47 46 47 49 51 52 55 57 59 59 59 58 58 58 58 57 56 53 49 47 44 41 37 35 34 29 20 16 16 16 16 18 17 17 19 19 17 19 19 15 12 12 11 10 10 9 8 7 6 6 7 9 12 13 12 9 8 8 8 9 11 13 14 14
31 30 30 29 27 24 23 23 25 28 31 34 35 36 37 38 38 38 38 40 43 42 39 40 44 47 49 52 56 57 56 55 56 55 54 55 56 59 59 56 53 49 44 40 37 37 33 25 20 20 17 15 19 21 20 20 19 16 16 17 14 11 9 8 7 7 7 7 7 6 7 8 12 14 14 13 11 10 10 10 11 14 15 16 15
35 34 34 32 30 27 25 23 23 25 28 31 32 34 37 38 38 37 37 38 40 40 37 38 41 43 43 45 50 53 53 52 53 53 52 52 53 56 57 57 58 57 53 47 42 40 37 32 29 27 21 15 19 23 21 19 20 18 16 15 13 10 9 7 4 3 4 6 6 6 8 10 14 15 15 14 13 12 12 12 13 15 16 15 15
36 36 35 34 32 30 28 26 25 25 27 29 30 32 35 37 38 39 38 37 38 40 41 42 43 44 44 43 45 48 51 52 50 50 51 52 52 53 53 52 54 56 57 55 51 47 44 39 35 33 28 22 22 25 24 23 22 19 16 14 12 11 9 7 5 4 3 6 5 4 10 13 14 15 16 15 15 14 14 15 16 16 15 15 15
36 37 37 35 34 33 30 29 29 29 30 29 28 30 33 35 37 38 38 38 37 39 42 43 44 45 46 46 45 45 47 48 47 47 49 50 50 50 50 49 49 50 52 53 52 51 51 49 44 39 36 31 27 27 28 26 24 21 17 14 13 12 10 8 7 5 4 5 5 2 9 14 11 10 14 15 14 15 18 18 18 17 16 15 14
32 34 36 36 36 35 32 31 31 32 33 30 28 29 31 33 35 37 38 39 39 40 42 44 44 45 46 47 47 46 45 45 45 45 46 48 47 46 46 46 46 48 48 48 48 46 45 47 47 42 38 35 30 28 27 27 26 23 19 14 12 11 10 8 7 6 6 6 5 3 8 13 11 10 13 14 13 16 20 21 20 19 17 14 13
26 27 30 34 37 37 35 33 33 34 35 34 30 30 30 31 33 34 36 38 40 41 42 44 45 46 46 46 46 46 44 43 46 47 46 47 46 43 43 44 45 47 48 49 50 47 43 42 43 41 37 34 31 28 26 27 26 23 18 15 12 10 10 9 7 7 9 10 9 6 7 10 9 10 12 13 13 16 20 22 21 19 16 13 12
24 23 26 31 34 37 37 35 34 35 38 37 33 30 30 29 30 31 33 35 37 39 40 42 44 45 46 46 45 45 45 44 45 46 47 47 44 41 42 42 42 44 47 49 50 49 47 43 40 37 34 31 29 26 25 26 25 23 19 16 14 13 11 8 8 9 10 11 11 11 9 10 12 12 13 12 12 15 19 21 21 17 14 12 14
25 24 27 31 34 37 38 36 34 36 39 39 35 32 31 29 28 29 32 33 34 37 40 42 42 43 45 46 45 45 45 45 45 44 46 47 45 42 41 39 38 40 42 43 43 44 44 42 38 35 31 28 26 25 24 24 24 24 23 18 16 15 11 8 8 9 9 9 11 13 10 11 13 13 11 11 13 16 19 20 20 18 15 14 17
26 26 26 29 35 39 38 35 35 36 39 40 37 34 33 30 28 29 31 30 31 34 38 41 42 42 43 43 43 44 45 45 45 44 45 46 45 43 40 37 36 37 37 35 34 34 35 35 33 30 27 25 24 23 22 22 22 23 23 20 19 17 14 11 9 7 7 9 13 14 10 10 11 10 9 10 12 16 17 17 16 16 15 16 20
26 27 25 26 31 36 38 37 36 36 39 42 39 35 34 31 28 29 29 28 30 31 32 35 38 40 41 40 40 43 45 45 45 45 44 45 45 44 42 39 37 35 33 32 33 32 31 30 30 29 26 23 22 22 21 21 22 21 21 21 21 20 17 13 10 7 4 6 12 15 11 8 9 8 7 5 6 9 11 12 13 15 16 19 21
Wind_Direction
214 212 210 208 207 208 207 208 209 209 208 205 203 202 202 201 201 202 203 205 204 206 207 207 209 208 210 210 214 218 224 234 239 242 241 239 236 228 210 188 172 158 134 116 119 127 130 134 134 133 131 127 117 110 112 112 102 88 81 81 84 80 73 69 64 61 59 57 55 53 49 46 49 52 53 54 56 59 59 55 48 37 30 23 17
215 213 211 210 210 210 209 210 211 211 209 206 204 203 205 204 202 203 203 204 204 204 206 207 207 206 206 207 212 218 228 238 242 247 243 233 225 214 204 192 176 158 133 112 111 114 119 123 124 130 132 128 123 120 120 116 105 94 88 85 88 87 79 74 71 63 59 57 56 55 52 47 47 50 53 54 54 54 53 51 47 40 31 23 16
217 215 213 212 211 210 209 210 211 211 209 207 206 204 205 205 204 204 204 203 203 203 203 204 205 206 205 205 210 216 227 237 243 242 231 220 211 195 186 189 179 156 133 116 114 110 105 107 110 116 124 129 126 123 126 124 115 105 99 94 94 93 88 80 72 64 61 56 54 58 57 49 47 48 51 53 52 51 51 48 47 46 39 32 23
219 218 215 213 212 210 210 211 212 211 209 207 206 205 204 206 206 205 204 203 202 202 202 201 203 204 203 204 208 213 221 230 236 233 225 209 194 184 174 177 177 164 145 130 124 112 101 100 102 104 114 125 122 118 125 126 117 106 105 105 102 100 93 82 74 68 66 59 53 58 59 51 47 47 50 51 50 49 49 47 46 47 41 35 28
220 220 217 214 213 212 212 212 212 211 209 208 206 206 205 206 206 205 203 202 202 202 201 199 201 203 203 204 205 210 217 221 226 223 215 201 188 181 175 172 172 175 170 159 150 135 121 115 117 120 116 112 113 123 124 119 115 108 109 111 108 108 97 83 78 72 68 62 54 57 59 54 48 46 48 49 49 47 48 47 44 44 37 29 22
221 220 217 216 215 214 214 213 213 211 209 207 206 206 206 205 205 202 202 201 201 201 199 198 200 201 203 204 205 207 211 215 220 216 206 197 190 184 179 176 175 181 185 184 180 168 154 143 142 144 132 115 110 118 118 114 116 114 115 115 108 104 98 88 81 74 71 66 58 57 58 57 51 47 49 48 47 45 43 43 41 40 36 30 26
222 221 217 217 216 216 215 214 214 212 209 207 206 206 206 206 204 201 199 198 200 199 197 197 198 200 200 201 203 204 209 216 215 210 204 195 190 186 181 180 181 184 185 188 194 190 181 172 168 166 158 142 120 103 103 115 116 118 120 111 104 99 94 89 83 77 76 71 63 60 59 59 53 47 47 46 44 41 38 37 36 35 32 28 26
223 222 219 217 217 216 216 216 215 211 208 208 207 206 206 205 204 202 200 197 198 198 195 196 196 198 199 199 201 202 205 208 207 203 198 193 190 188 186 186 187 188 187 188 192 194 196 197 195 190 184 175 159 127 100 110 116 118 122 108 103 104 93 86 85 82 77 71 64 59 58 57 52 45 43 42 41 38 35 35 33 32 29 26 23
224 223 220 219 218 217 217 217 216 211 209 208 206 207 206 205 204 203 202 198 196 195 193 193 196 197 198 199 196 195 197 198 198 195 192 191 189 188 189 191 191 192 193 194 196 197 203 208 211 209 204 196 185 167 123 110 121 122 122 113 104 102 95 87 83 80 74 68 62 58 56 54 48 43 42 40 37 35 32 31 29 27 25 23 21
224 223 221 220 220 219 219 218 215 211 210 208 206 207 207 207 205 203 201 198 194 193 191 192 193 191 190 193 191 190 194 195 192 185 185 188 188 188 188 190 192 195 198 200 202 203 205 209 211 213 213 207 196 180 150 115 115 124 122 119 110 99 92 86 81 76 69 64 59 55 51 47 44 41 38 34 30 27 25 24 21 19 17 15 14
223 223 221 221 220 220 219 218 215 211 209 207 206 206 206 207 206 204 200 196 192 190 191 190 186 184 184 185 188 190 193 192 187 180 182 187 188 189 188 189 194 198 200 203 205 206 207 209 209 212 215 215 204 186 163 115 99 123 132 122 110 99 90 82 76 69 60 56 52 48 44 40 36 33 30 26 24 23 20 19 17 15 12 10 8
223 223 222 221 220 220 219 218 214 211 209 207 207 209 208 207 206 205 200 195 191 190 191 186 173 166 169 172 180 188 191 189 186 185 186 187 186 186 188 190 194 199 201 203 209 213 215 217 215 215 215 216 208 191 174 134 103 105 127 127 117 103 94 82 67 53 46 46 45 38 34 32 27 24 23 21 21 19 15 13 12 9 8 7 5
223 222 222 220 219 219 218 217 214 211 211 211 211 211 209 207 205 204 201 196 193 192 190 180 163 148 143 150 164 180 188 187 187 191 190 188 187 186 189 190 194 198 204 209 217 222 225 226 222 218 214 205 191 179 175 154 123 103 104 118 122 104 83 66 51 42 36 38 39 31 25 23 20 19 18 15 14 12 8 5 4 3 2 3 2
224 223 222 220 218 217 217 217 215 212 212 212 212 212 210 208 204 200 198 195 195 193 187 178 172 168 155 145 151 168 188 189 191 195 193 192 190 189 189 191 195 199 205 216 225 229 227 227 223 219 212 196 179 169 168 164 147 128 113 107 95 75 61 51 37 29 28 29 29 22 17 17 17 16 12 8 6 3 1 360 358 358 358 356 356
224 223 221 220 218 218 218 217 216 214 212 211 211 211 209 208 205 200 193 189 195 196 190 185 182 172 160 163 175 168 190 202 201 198 194 194 193 193 194 195 197 196 198 206 215 223 224 225 226 223 212 192 175 164 162 164 164 156 144 123 95 67 49 40 31 23 20 20 19 16 13 15 14 11 7 3 1 359 357 356 354 353 353 351 350
225 224 222 221 220 219 219 218 217 215 213 212 211 210 209 208 206 201 194 186 188 196 195 193 186 170 167 178 168 181 220 196 188 192 193 195 196 197 198 196 194 190 187 194 204 217 226 232 234 228 213 190 174 164 156 153 153 151 144 135 112 81 55 39 29 23 21 19 18 15 13 15 12 6 4 1 358 357 355 352 351 350 350 349 349
226 226 224 223 222 221 221 220 218 216 214 212 212 211 210 209 206 203 200 194 189 192 197 199 195 188 188 172 145 210 240 163 165 184 192 198 201 200 201 196 193 194 196 208 218 228 237 241 237 225 209 188 175 166 156 150 147 143 136 122 105 93 68 47 34 26 24 21 18 16 13 12 8 3 1 359 357 355 353 351 350 350 348 347 348
228 227 226 224 223 223 222 221 220 217 215 213 213 212 211 211 209 206 205 202 193 188 195 201 203 201 200 195 188 209 145 148 158 178 187 202 209 206 207 205 203 207 213 223 230 237 243 242 234 220 203 186 177 169 163 160 157 152 144 119 84 71 68 50 36 29 26 22 17 14 12 8 3 1 359 358 357 354 351 350 349 349 347 348 349
229 229 227 225 224 223 223 222 221 220 217 214 214 214 213 213 213 210 208 204 198 191 193 199 204 209 209 208 209 206 154 158 176 166 172 203 214 213 217 216 215 218 223 230 232 234 240 241 230 216 201 187 179 175 174 172 166 156 141 114 68 49 47 36 27 25 22 20 16 11 8 5 1 360 358 356 355 353 350 350 349 348 348 349 350
229 229 228 226 225 224 224 223 221 221 219 216 216 216 215 215 214 212 210 206 203 201 197 198 201 207 211 214 221 219 196 186 196 198 196 194 194 207 220 219 221 224 225 229 231 228 232 235 226 212 201 190 182 181 183 179 169 161 150 89 49 38 35 27 18 12 14 15 13 10 6 3 360 358 358 355 352 351 350 346 346 347 346 348 349
229 229 229 228 227 226 224 223 222 222 220 219 218 218 218 217 215 213 211 210 209 207 203 203 203 203 207 211 217 218 213 214 212 209 222 217 183 191 197 203 220 225 223 226 228 226 227 230 225 211 200 193 188 188 188 185 181 179 197 317 16 21 16 12 7 350 355 5 6 6 4 359 357 357 356 353 350 348 345 341 343 345 345 347 348
229 229 229 229 228 227 225 224 223 222 222 220 220 220 220 219 218 217 215 213 213 211 209 209 208 207 208 207 203 198 201 214 214 203 211 232 219 186 178 182 201 208 213 220 222 222 224 226 223 211 201 196 194 195 194 192 193 200 235 283 329 1 0 352 351 338 323 343 359 1 360 355 353 353 353 350 347 344 340 340 343 344 346 348 349
229 228 229 229 228 227 226 226 224 223 223 222 222 222 221 221 220 220 218 216 216 214 213 214 213 212 212 209 205 203 202 200 201 198 197 209 211 190 179 184 185 179 195 209 211 214 219 222 220 210 203 200 199 201 200 198 200 213 239 263 300 334 345 335 332 330 315 319 347 354 354 351 348 347 347 346 342 339 340 341 343 343 345 347 347
228 229 230 229 227 226 225 225 225 225 225 224 223 222 222 221 221 220 220 219 218 217 216 216 216 214 214 213 212 213 212 209 207 206 205 203 205 204 167 173 181 165 182 198 203 209 215 218 217 209 204 203 205 205 200 200 205 217 234 249 279 303 320 321 315 318 311 310 336 348 345 342 342 342 340 341 338 337 340 340 340 340 342 344 344
230 231 232 230 227 226 226 226 225 226 226 225 224 223 222 221 221 221 222 221 221 220 219 219 220 219 219 218 217 217 217 217 217 215 213 205 207 210 159 160 186 161 170 188 194 206 215 218 216 208 206 206 206 205 199 200 207 215 228 240 256 280 295 301 303 304 301 304 324 333 333 332 336 337 335 335 334 333 336 337 337 338 338 339 339
238 237 236 233 230 228 227 227 227 227 227 226 225 225 224 223 222 223 223 224 224 223 223 223 222 222 222 221 221 221 222 223 223 222 217 209 205 200 159 144 182 148 161 187 189 201 212 217 215 208 207 208 206 204 200 202 208 212 221 237 248 266 279 280 286 289 283 282 294 304 314 322 327 330 329 329 330 329 330 331 333 334 335 336 336
246 245 242 238 235 232 229 228 228 227 228 227 227 226 225 224 223 224 225 225 225 225 225 224 224 223 223 224 224 224 225 225 224 224 222 216 211 203 180 164 179 170 172 188 199 211 207 206 211 209 208 210 208 206 204 206 211 212 218 236 251 264 270 268 269 270 263 251 251 274 288 305 319 322 322 323 324 323 324 326 329 330 331 332 333
252 250 248 244 240 236 232 231 230 228 228 228 228 227 226 224 224 224 225 226 226 226 225 225 225 225 225 225 225 226 226 226 225 225 224 221 217 211 199 186 185 194 190 190 207 217 203 193 204 210 212 211 210 210 208 210 216 216 221 234 250 263 260 253 255 251 242 232 238 253 267 289 304 310 314 317 316 317 320 321 322 324 327 329 330
257 255 252 249 245 241 237 234 232 231 229 229 229 228 227 226 225 225 227 227 227 227 226 226 226 226 226 226 226 227 228 228 226 225 224 221 219 216 210 202 200 201 194 199 204 202 201 199 199 208 213 212 212 213 210 214 219 219 224 234 245 256 251 241 240 237 227 224 232 239 249 268 282 298 307 308 307 311 315 315 316 320 323 325 326
263 260 256 252 249 245 240 237 236 233 232 231 230 229 228 227 227 227 228 228 228 228 228 228 227 226 226 226 227 227 228 228 226 225 224 222 220 219 215 210 208 210 206 208 206 186 189 198 199 207 212 210 212 214 210 215 221 220 226 237 247 252 248 238 230 224 218 218 225 228 230 236 248 281 293 293 296 302 308 312 316 319 320 321 322
268 264 260 254 250 247 243 240 239 236 234 233 231 229 228 227 227 228 229 229 228 229 229 228 228 227 226 226 226 227 227 227 226 225 223 222 221 220 218 215 213 215 214 216 217 187 181 193 198 208 213 210 211 213 210 216 222 221 227 239 250 252 249 242 230 218 212 214 217 218 216 212 215 251 269 275 283 294 307 314 315 317 318 317 317
274 268 263 257 252 250 247 243 241 239 236 234 232 230 229 228 227 228 229 229 228 229 229 229 228 227 226 226 226 226 226 225 225 224 223 222 222 220 220 218 216 217 215 215 223 189 180 188 193 204 212 209 211 213 212 218 223 223 229 241 250 251 249 243 232 219 213 213 213 213 201 187 193 223 245 259 275 293 312 318 315 315 315 312 310
279 273 266 261 257 253 250 247 244 241 238 235 233 231 230 229 229 229 229 228 228 228 228 229 229 227 226 225 226 226 226 224 224 223 222 221 220 219 219 218 217 217 214 211 214 185 177 186 188 199 208 207 209 213 212 218 225 226 232 241 245 246 245 238 228 221 217 213 210 207 192 181 194 214 232 251 278 310 328 322 314 310 307 306 307
285 278 271 265 261 258 253 250 247 243 241 238 235 233 231 231 230 230 230 229 228 227 226 227 228 227 225 225 225 225 225 224 223 222 221 220 218 217 217 216 215 217 215 210 207 191 175 187 191 194 203 205 205 211 213 216 223 227 233 239 240 240 240 233 225 221 219 216 210 202 191 189 194 204 223 255 292 328 331 313 304 302 304 307 312
290 283 277 270 265 261 257 253 250 247 244 241 238 236 235 233 232 232 231 230 229 228 227 227 227 225 224 224 224 224 223 222 222 222 221 219 217 216 216 216 215 216 216 212 208 196 172 182 192 192 199 203 202 208 215 217 222 229 235 238 237 236 234 229 225 223 220 218 215 206 197 193 194 204 229 279 318 323 309 298 297 300 306 312 316
295 288 284 279 270 264 260 256 252 249 247 244 242 241 239 237 235 234 234 233 231 230 229 229 227 225 224 223 224 223 221 220 221 221 219 218 217 215 215 215 214 214 216 212 208 200 177 178 191 193 197 201 202 207 215 218 224 232 235 235 233 232 230 227 228 227 224 224 223 215 202 195 197 212 267 320 320 306 296 294 298 302 309 313 315
304 294 287 284 277 269 263 259 255 252 250 248 246 244 243 241 239 237 237 235 234 233 231 231 230 227 225 224 224 223 221 219 219 219 218 217 216 215 214 214 213 212 214 212 210 205 186 174 182 188 191 194 197 205 211 213 218 226 230 230 229 227 226 229 234 232 228 226 224 216 205 200 213 256 317 324 314 304 299 299 303 308 314 314 312
326 309 293 286 282 276 269 265 261 257 255 252 250 247 245 244 242 240 238 238 237 235 234 233 232 230 228 228 227 225 221 220 219 218 217 216 216 215 213 213 211 210 210 210 209 206 196 181 178 182 184 186 188 196 207 208 203 205 216 222 226 228 228 231 234 235 237 233 222 216 210 210 247 298 323 323 315 309 306 310 319 322 321 318 313
343 332 314 298 288 283 276 270 266 263 260 257 253 250 246 244 243 241 240 239 239 238 237 236 235 234 232 231 230 227 224 223 222 220 217 215 215 215 214 212 210 208 207 207 206 204 198 184 177 180 183 188 188 190 201 204 200 199 201 205 215 222 225 226 225 226 237 242 233 231 230 238 274 306 321 323 317 310 310 321 331 329 324 318 313
345 341 333 320 303 291 282 274 269 266 263 260 255 251 247 244 243 242 241 240 240 240 239 238 237 236 234 233 232 230 228 227 225 223 220 217 214 213 213 212 210 207 205 203 201 201 198 188 180 180 179 184 188 183 185 191 197 205 204 203 206 204 206 217 218 215 222 231 234 242 249 262 289 309 317 318 313 308 313 324 327 324 322 319 316
341 339 337 332 321 305 291 280 273 267 262 259 255 252 248 246 245 244 243 241 241 241 241 239 238 237 236 234 233 232 231 230 229 227 225 222 218 215 213 211 208 206 204 201 199 198 195 190 183 178 177 184 187 182 182 188 195 201 200 203 209 201 198 212 220 221 225 222 221 228 237 259 287 304 310 311 310 310 313 319 323 322 321 318 316
338 337 335 333 329 318 304 289 278 271 266 261 257 254 251 247 246 245 244 242 241 240 239 238 237 237 236 234 234 234 233 233 232 229 227 225 223 221 219 215 211 207 202 200 199 198 196 193 188 183 182 189 190 186 189 193 193 189 186 194 206 205 202 213 220 230 238 228 226 236 245 274 298 305 308 309 309 311 313 316 321 320 316 313 311
335 334 333 332 329 324 314 299 283 275 272 269 265 259 253 249 247 245 244 244 243 240 238 237 237 236 235 235 236 236 233 232 232 230 227 226 224 223 222 220 218 214 209 204 201 199 198 198 197 194 189 187 190 191 190 186 186 188 186 191 200 198 196 205 203 205 227 226 233 258 269 289 305 305 304 305 305 308 311 312 314 313 311 310 308
332 330 329 328 326 323 317 308 297 286 279 278 275 267 258 253 250 246 244 244 243 240 239 239 238 238 236 235 236 236 234 231 230 229 227 226 225 223 221 220 219 218 217 213 209 204 203 202 200 200 200 194 192 194 192 186 184 185 184 189 198 196 194 199 192 170 198 217 218 268 283 291 304 303 298 298 299 302 304 304 307 308 306 304 300
328 325 324 323 323 321 316 309 303 297 291 287 282 274 266 258 254 249 246 245 242 240 240 239 239 238 237 236 235 235 235 232 228 227 226 225 224 223 221 220 219 218 217 217 216 213 211 208 203 203 204 201 197 197 197 192 184 178 178 187 195 195 193 200 199 178 173 204 203 251 284 284 289 285 281 284 285 288 296 300 302 303 300 293 288
321 319 319 318 318 317 314 308 304 300 296 292 286 279 272 265 259 253 248 245 243 242 241 240 239 238 237 236 234 233 234 230 224 223 223 221 220 220 219 219 219 218 217 217 217 216 215 213 209 208 208 207 204 201 198 194 188 182 180 182 186 191 195 200 206 198 196 216 222 238 275 277 272 256 259 266 270 277 289 296 298 298 291 280 275
311 309 310 312 313 313 311 307 303 299 297 295 290 284 277 269 263 255 249 246 244 244 244 242 240 239 238 237 235 232 232 229 223 220 219 218 216 216 216 217 218 219 218 219 218 218 217 216 215 214 213 211 208 203 198 194 190 186 182 180 183 188 193 200 215 228 234 240 236 223 244 262 257 245 250 258 265 274 284 292 296 290 276 267 274
304 300 300 304 306 307 306 304 300 296 296 297 293 286 279 270 261 254 249 247 246 245 245 243 242 241 240 238 236 233 230 228 224 220 219 217 214 212 213 214 214 216 217 219 219 218 218 217 216 215 214 211 207 201 197 191 187 183 178 178 185 186 187 204 228 239 245 245 227 210 221 248 247 245 254 261 265 271 276 285 289 278 262 266 279
300 296 296 299 302 302 302 300 296 292 294 295 293 288 283 272 260 254 250 248 247 246 245 244 242 241 241 238 235 233 230 228 225 221 218 217 213 210 210 210 209 211 213 215 216 217 217 216 214 213 212 210 205 200 196 190 187 185 177 173 181 187 190 211 230 233 235 230 215 205 217 245 245 243 254 264 268 271 272 276 274 264 260 268 274
295 292 292 294 298 299 298 295 293 290 291 293 291 286 283 276 264 256 252 249 248 247 245 245 243 241 241 240 235 232 230 227 224 221 218 215 212 210 209 206 205 208 208 203 202 206 210 210 209 208 208 206 201 197 193 188 189 190 185 180 183 187 196 213 220 221 229 231 221 208 209 236 241 240 257 270 274 272 268 267 260 247 250 264 272
292 291 289 288 291 294 294 293 292 289 288 291 290 285 281 276 265 257 253 250 249 247 242 242 242 239 239 239 234 231 230 227 225 222 218 213 211 210 207 203 202 204 200 193 190 191 192 194 196 198 197 195 191 190 188 186 190 194 192 190 191 192 200 211 210 204 227 240 217 201 199 230 242 239 250 265 281 276 258 244 235 235 253 270 273